CW4477 Weather Reports


time (UTC)temp
C
wind
direction
speed
KPH
gust
KPH
rain 1hr
cm
rain 24hr
cm
rain mn
cm
humidity
%
barometer
mb
20260509150612 18 291 3.2 17.7 0.00 0.10 0.03 53 1002.5
20260509150112 18 237 4.8 17.7 0.00 0.10 0.03 54 1002.5
20260509145612 18 282 9.7 17.7 0.00 0.10 0.03 55 1002.4
20260509145109 18 222 4.8 16.1 0.00 0.10 0.03 56 1002.5
20260509144609 17 313 6.4 20.9 0.00 0.10 0.03 57 1002.4
20260509144330 17 295 6.4 20.9 0.00 0.10 0.03 57 1002.4
20260509143835 17 234 8.0 20.9 0.00 0.10 0.03 58 1002.4
20260509143327 17 288 9.7 16.1 0.00 0.10 0.03 59 1002.4
20260509143050 17 292 4.8 14.5 0.00 0.10 0.03 60 1002.4
20260509142106 17 277 3.2 16.1 0.00 0.10 0.03 61 1002.4
20260509141605 16 296 8.0 17.7 0.00 0.10 0.03 61 1002.3
20260509141104 16 289 8.0 17.7 0.00 0.10 0.03 63 1002.3
20260509140603 16 253 12.9 17.7 0.00 0.10 0.03 62 1002.3
20260509140329 16 307 4.8 16.1 0.00 0.10 0.03 63 1002.4
20260509135604 16 313 4.8 17.7 0.00 0.10 0.03 65 1002.2
20260509135058 16 305 3.2 17.7 0.00 0.10 0.03 66 1002.1
20260509134559 15 312 9.7 19.3 0.00 0.10 0.03 67 1002.1
20260509134059 15 302 8.0 22.5 0.00 0.10 0.03 68 1002.1
20260509133556 15 230 3.2 22.5 0.00 0.10 0.03 68 1002.3
20260509133534 15 22 8.0 20.9 0.00 0.10 0.03 68 1002.4
20260509132555 15 303 9.7 17.7 0.00 0.10 0.03 68 1002.6
20260509132054 15 324 9.7 17.7 0.00 0.10 0.03 68 1002.6
20260509131552 15 1 3.2 16.1 0.00 0.10 0.03 69 1002.6
20260509131052 15 310 4.8 14.5 0.00 0.10 0.03 70 1002.5
20260509130552 15 303 3.2 17.7 0.00 0.10 0.03 70 1002.6
20260509130052 15 306 8.0 17.7 0.00 0.10 0.03 70 1002.5
20260509125549 15 324 1.6 24.1 0.00 0.10 0.03 73 1002.4
20260509125053 14 296 4.8 24.1 0.00 0.10 0.03 73 1002.3
20260509124547 14 299 4.8 22.5 0.00 0.10 0.03 73 1002.5
20260509124046 14 292 3.2 19.3 0.00 0.10 0.03 75 1002.5
20260509123545 13 264 8.0 19.3 0.00 0.10 0.03 76 1002.4
20260509123046 13 334 8.0 14.5 0.00 0.10 0.03 77 1002.4
20260509122543 13 292 6.4 14.5 0.00 0.10 0.03 77 1002.5
20260509122044 13 310 8.0 16.1 0.00 0.10 0.03 79 1002.5
20260509121541 13 257 6.4 16.1 0.00 0.10 0.03 80 1002.4
20260509121313 13 149 8.0 17.7 0.00 0.10 0.03 80 1002.3
20260509120542 13 225 9.7 17.7 0.00 0.10 0.03 81 1002.4
20260509120040 12 241 9.7 17.7 0.00 0.10 0.03 82 1002.4
20260509115539 12 237 6.4 16.1 0.00 0.10 0.03 83 1002.3
20260509115041 12 302 4.8 14.5 0.00 0.10 0.03 83 1002.4
20260509114808 12 223 6.4 14.5 0.00 0.10 0.03 83 1002.3
20260509114040 12 191 3.2 14.5 0.00 0.10 0.03 83 1002.2
20260509113536 12 212 8.0 14.5 0.00 0.10 0.03 83 1002.1
20260509113037 12 237 8.0 16.1 0.00 0.10 0.03 84 1002.2
20260509112535 12 270 4.8 16.1 0.00 0.10 0.03 83 1002.2
20260509112035 12 272 6.4 12.9 0.00 0.10 0.03 83 1002.2
20260509111535 12 262 3.2 17.7 0.00 0.15 0.03 83 1002.3
20260509111035 12 98 4.8 17.7 0.00 0.18 0.03 83 1002.1
20260509110528 12 180 8.0 12.9 0.00 0.18 0.03 83 1001.8
20260509110248 12 278 8.0 12.9 0.00 0.18 0.03 83 1001.8
20260509105524 12 241 6.4 12.9 0.00 0.18 0.03 83 1001.9
20260509105024 12 215 4.8 12.9 0.00 0.18 0.03 82 1001.9
20260509104523 12 237 6.4 16.1 0.00 0.18 0.03 82 1001.8
20260509104023 12 232 6.4 16.1 0.00 0.18 0.03 83 1001.8
20260509103520 12 229 4.8 14.5 0.00 0.18 0.03 83 1001.7
20260509103020 12 180 8.0 14.5 0.00 0.18 0.03 83 1001.8
20260509102520 12 267 6.4 16.1 0.00 0.18 0.03 82 1001.8
20260509102021 12 206 6.4 16.1 0.00 0.18 0.03 82 1001.8
20260509101516 12 241 9.7 16.1 0.00 0.18 0.03 82 1001.9
20260509101456 12 205 8.0 11.3 0.00 0.18 0.03 82 1001.9
20260509100517 12 195 6.4 11.3 0.00 0.18 0.03 82 1002.0
20260509100015 12 195 4.8 11.3 0.00 0.18 0.03 82 1002.0
20260509095514 12 289 3.2 14.5 0.00 0.18 0.03 82 1002.1
20260509095014 12 223 3.2 14.5 0.00 0.18 0.03 82 1002.2
20260509094514 12 284 6.4 12.9 0.00 0.18 0.03 82 1002.3
20260509094014 12 243 3.2 12.9 0.00 0.18 0.03 82 1002.5
20260509093512 12 258 6.4 12.9 0.00 0.18 0.03 82 1002.5
20260509093010 12 240 3.2 14.5 0.00 0.18 0.03 82 1002.5
20260509092512 12 313 4.8 14.5 0.00 0.18 0.03 81 1002.5
20260509092010 12 241 6.4 14.5 0.00 0.18 0.03 82 1002.4
20260509091511 12 188 6.4 12.9 0.00 0.18 0.03 81 1002.4
20260509091013 12 195 6.4 16.1 0.03 0.18 0.03 81 1002.5
20260509090507 12 248 3.2 16.1 0.03 0.18 0.03 81 1002.5
20260509090006 12 248 4.8 12.9 0.03 0.18 0.03 81 1002.6
20260509085509 13 87 4.8 16.1 0.03 0.18 0.03 81 1002.6
20260509085005 12 236 4.8 16.1 0.03 0.18 0.03 81 1002.6
20260509084504 12 244 6.4 11.3 0.03 0.18 0.03 81 1002.7
20260509084004 12 241 3.2 12.9 0.03 0.18 0.03 81 1002.7
20260509083503 12 254 4.8 12.9 0.03 0.18 0.03 80 1002.7
20260509083238 12 285 4.8 12.9 0.03 0.18 0.03 80 1002.7
20260509082505 13 292 3.2 12.9 0.03 0.18 0.03 80 1002.6
20260509082009 12 248 4.8 12.9 0.03 0.18 0.03 80 1002.6
20260509081459 13 260 3.2 12.9 0.03 0.18 0.03 79 1002.6
20260509080958 13 258 6.4 11.3 0.00 0.15 0.00 80 1002.6
20260509080456 13 168 1.6 12.9 0.00 0.15 0.00 79 1002.6
20260509075957 13 227 1.6 12.9 0.00 0.15 0.00 79 1002.6
20260509075720 13 264 6.4 11.3 0.00 0.15 0.00 79 1002.7
20260509074953 13 175 4.8 11.3 0.00 0.15 0.00 78 1002.6
20260509074451 13 201 3.2 11.3 0.00 0.15 0.00 78 1002.8
20260509073951 13 264 4.8 9.7 0.00 0.15 0.00 78 1002.8
20260509073449 13 251 6.4 12.9 0.00 0.15 0.00 77 1002.8
20260509072949 13 196 4.8 14.5 0.00 0.15 0.00 77 1002.9
20260509072448 13 248 4.8 14.5 0.00 0.15 0.00 77 1003.0
20260509071952 13 260 6.4 12.9 0.00 0.15 0.00 77 1003.0
20260509071447 13 272 3.2 11.3 0.00 0.15 0.00 76 1003.1
20260509070945 13 265 4.8 11.3 0.00 0.15 0.00 76 1003.3
20260509070730 13 271 6.4 11.3 0.00 0.15 0.00 77 1003.3
20260509065944 13 219 3.2 11.3 0.00 0.15 0.00 76 1003.3
20260509065445 13 323 3.2 11.3 0.00 0.15 0.00 76 1003.4
20260509065208 13 285 1.6 12.9 0.00 0.15 0.00 76 1003.5
20260509064438 13 108 3.2 12.9 0.00 0.15 0.00 76 1003.4
20260509063935 13 243 6.4 11.3 0.00 0.15 0.00 76 1003.5
20260509063435 13 181 4.8 12.9 0.00 0.15 0.00 76 1003.5
20260509062934 13 212 3.2 16.1 0.00 0.15 0.00 76 1003.5
20260509062434 13 237 1.6 16.1 0.00 0.15 0.00 76 1003.6
20260509061932 13 220 4.8 14.5 0.00 0.15 0.00 76 1003.6
20260509061431 13 293 4.8 16.1 0.00 0.15 0.00 76 1003.8
20260509060932 14 262 4.8 16.1 0.00 0.15 0.00 76 1003.9
20260509060428 14 284 4.8 16.1 0.00 0.15 0.00 75 1004.0
20260509055928 14 257 4.8 16.1 0.00 0.15 0.00 75 1004.1
20260509055426 14 253 3.2 16.1 0.00 0.15 0.00 75 1004.1
20260509054928 14 277 4.8 12.9 0.00 0.15 0.00 74 1004.1
20260509054647 14 244 8.0 12.9 0.00 0.15 0.00 75 1004.1
20260509053927 14 192 3.2 11.3 0.00 0.15 0.00 74 1004.1
20260509053649 14 250 4.8 11.3 0.00 0.15 0.00 74 1004.1
20260509052924 14 237 6.4 11.3 0.00 0.15 0.00 73 1004.1
20260509052423 14 219 3.2 14.5 0.00 0.15 0.00 72 1004.1
20260509051923 14 288 6.4 14.5 0.00 0.15 0.00 73 1003.9
20260509051422 14 192 4.8 12.9 0.00 0.15 0.00 72 1003.9
20260509050922 14 241 4.8 12.9 0.00 0.15 0.00 71 1004.1
20260509050649 14 208 6.4 12.9 0.00 0.15 0.00 71 1004.1
20260509045921 14 199 8.0 16.1 0.00 0.15 0.15 70 1004.0
20260509045418 14 219 6.4 16.1 0.00 0.15 0.15 69 1004.0
20260509045142 15 203 8.0 12.9 0.00 0.15 0.15 69 1004.0
20260509044418 15 161 6.4 12.9 0.00 0.15 0.15 68 1004.2
20260509043918 15 158 3.2 11.3 0.00 0.15 0.15 67 1004.3
20260509043418 15 237 6.4 12.9 0.00 0.15 0.15 67 1004.3
20260509042916 15 250 6.4 12.9 0.00 0.15 0.15 66 1004.2
20260509042415 15 225 6.4 14.5 0.00 0.15 0.15 66 1004.1
20260509041914 15 230 9.7 16.1 0.00 0.15 0.15 66 1004.1
20260509041414 15 241 6.4 16.1 0.00 0.20 0.15 66 1004.1
20260509041359 15 182 8.0 16.1 0.00 0.20 0.15 66 1004.1
20260509040412 15 226 6.4 16.1 0.00 0.20 0.15 66 1004.1
20260509035911 14 232 6.4 9.7 0.00 0.20 0.15 66 1004.2
20260509035411 14 187 4.8 9.7 0.00 0.20 0.15 65 1004.3
20260509034910 14 187 3.2 9.7 0.00 0.20 0.15 65 1004.4
20260509034408 14 227 4.8 14.5 0.00 0.20 0.15 64 1004.4
20260509033908 14 191 4.8 14.5 0.00 0.20 0.15 64 1004.3
20260509033625 14 253 3.2 12.9 0.00 0.20 0.15 63 1004.3
20260509032908 14 222 4.8 14.5 0.00 0.20 0.15 64 1004.4
20260509032409 14 216 3.2 14.5 0.00 0.20 0.15 64 1004.4
20260509031906 14 182 4.8 12.9 0.00 0.20 0.15 64 1004.4
20260509031404 13 195 6.4 11.3 0.00 0.20 0.15 65 1004.4
20260509030903 13 226 4.8 9.7 0.00 0.20 0.15 66 1004.5
20260509030628 13 157 4.8 9.7 0.00 0.20 0.15 66 1004.5
20260509025904 13 271 0.0 6.4 0.00 0.20 0.15 65 1004.5
20260509025354 13 133 3.2 8.0 0.00 0.20 0.15 66 1004.5
20260509024850 13 153 4.8 8.0 0.00 0.20 0.15 64 1004.6
20260509024351 13 187 3.2 6.4 0.00 0.20 0.15 65 1004.7
20260509023851 13 178 4.8 6.4 0.00 0.20 0.15 64 1004.9
20260509023348 13 227 3.2 6.4 0.00 0.20 0.15 64 1004.9
20260509022849 13 174 3.2 6.4 0.00 0.20 0.15 64 1004.9
20260509022348 13 115 1.6 6.4 0.00 0.20 0.15 63 1005.0
20260509022116 13 23 3.2 6.4 0.00 0.20 0.15 63 1005.0
20260509021346 13 158 3.2 6.4 0.00 0.20 0.15 63 1005.1
20260509020842 13 118 1.6 6.4 0.00 0.20 0.15 63 1005.0
20260509020339 13 184 3.2 6.4 0.00 0.20 0.15 63 1005.0
20260509015844 13 154 1.6 6.4 0.00 0.20 0.15 63 1005.0
20260509015336 13 175 0.0 9.7 0.00 0.20 0.15 63 1004.9
20260509014836 13 120 3.2 9.7 0.00 0.20 0.15 62 1005.0
20260509014335 13 109 3.2 9.7 0.00 0.20 0.15 62 1004.9
20260509013839 13 85 6.4 9.7 0.00 0.20 0.15 62 1004.9
20260509013334 13 144 6.4 12.9 0.00 0.20 0.15 62 1004.9
20260509012834 13 174 6.4 12.9 0.00 0.20 0.15 61 1004.9
20260509012554 13 147 6.4 9.7 0.00 0.20 0.15 61 1004.9
20260509011832 13 174 4.8 9.7 0.00 0.20 0.15 59 1004.7
20260509011329 13 101 3.2 8.0 0.00 0.20 0.15 58 1004.7
20260509010829 13 142 4.8 8.0 0.00 0.20 0.15 59 1004.9
20260509010328 13 217 3.2 8.0 0.00 0.20 0.15 57 1004.9
20260509005829 13 108 3.2 9.7 0.00 0.20 0.15 56 1004.7
20260509005552 13 106 6.4 9.7 0.00 0.20 0.15 56 1004.9
20260509004827 13 157 0.0 9.7 0.00 0.20 0.15 55 1004.9
20260509004317 13 171 1.6 14.5 0.00 0.20 0.15 54 1004.7
20260509003816 13 111 6.4 14.5 0.00 0.20 0.15 53 1004.9
20260509003755 13 194 8.0 14.5 0.00 0.20 0.15 53 1004.9
20260509002814 13 225 6.4 12.9 0.00 0.20 0.15 52 1004.9
20260509002314 13 161 4.8 14.5 0.00 0.20 0.15 52 1005.0
20260509001812 13 64 3.2 14.5 0.00 0.20 0.15 52 1005.0
20260509001312 13 184 0.0 12.9 0.00 0.20 0.15 51 1005.1
20260509000813 13 112 6.4 12.9 0.00 0.20 0.15 50 1005.1
20260509000311 13 74 3.2 9.7 0.00 0.20 0.15 50 1005.0
20260508235808 13 165 1.6 12.9 0.00 0.20 0.15 49 1005.1
20260508235307 13 195 4.8 12.9 0.00 0.20 0.15 49 1005.1
20260508234810 13 180 3.2 12.9 0.00 0.20 0.15 48 1005.2
20260508234307 14 175 8.0 11.3 0.00 0.20 0.15 48 1005.2
20260508233804 14 113 4.8 12.9 0.00 0.20 0.15 47 1005.2
20260508233518 14 105 3.2 12.9 0.00 0.20 0.15 47 1005.2
20260508233029 14 71 1.6 16.1 0.00 0.20 0.15 49 1005.2
20260508232256 14 115 3.2 16.1 0.00 0.20 0.15 50 1005.2
20260508232016 14 149 6.4 16.1 0.00 0.20 0.15 50 1005.4
20260508231254 15 97 8.0 14.5 0.00 0.20 0.15 49 1005.3
20260508230755 15 153 4.8 14.5 0.00 0.20 0.15 48 1005.3
20260508230525 15 142 6.4 14.5 0.00 0.20 0.15 48 1005.4
20260508225752 14 144 6.4 14.5 0.00 0.20 0.15 47 1005.4
20260508225250 15 123 8.0 16.1 0.00 0.20 0.15 45 1005.4
20260508224753 15 112 3.2 16.1 0.00 0.20 0.15 42 1005.4
20260508224248 15 102 6.4 16.1 0.00 0.20 0.15 41 1005.4
20260508223749 15 74 3.2 16.1 0.00 0.20 0.15 42 1005.4
20260508223247 15 82 6.4 16.1 0.00 0.20 0.15 41 1005.4
20260508222746 15 156 4.8 16.1 0.00 0.20 0.15 41 1005.5
20260508222245 15 61 4.8 12.9 0.00 0.20 0.15 44 1005.5
20260508221745 15 142 6.4 14.5 0.00 0.20 0.15 45 1005.5
20260508221508 15 184 1.6 14.5 0.00 0.20 0.15 47 1005.5
20260508220747 15 102 6.4 16.1 0.00 0.20 0.15 44 1005.5
20260508220241 15 106 6.4 16.1 0.00 0.20 0.15 44 1005.5
20260508215752 15 184 8.0 17.7 0.00 0.20 0.15 43 1005.6
20260508215514 15 140 6.4 20.9 0.00 0.20 0.15 44 1005.6
20260508214740 15 108 4.8 20.9 0.00 0.20 0.15 44 1005.7
20260508214239 15 165 8.0 20.9 0.00 0.20 0.15 42 1005.7
20260508213739 15 170 11.3 17.7 0.00 0.20 0.15 44 1005.6
20260508213239 15 66 8.0 17.7 0.00 0.28 0.15 44 1005.7
20260508212739 15 139 9.7 17.7 0.00 0.36 0.15 41 1005.8
20260508212504 15 98 6.4 16.1 0.00 0.84 0.15 44 1005.8
20260508211739 15 101 6.4 16.1 0.00 0.86 0.15 44 1005.8
20260508211236 15 136 4.8 17.7 0.00 0.86 0.15 51 1005.8
20260508210735 15 127 8.0 17.7 0.00 0.86 0.15 50 1005.8
20260508210233 15 140 9.7 17.7 0.00 0.86 0.15 51 1005.8
20260508210000 15 102 11.3 17.7 0.00 0.86 0.15 50 1005.8
20260508205232 15 130 8.0 17.7 0.00 0.86 0.15 48 1005.9
20260508204731 15 153 9.7 17.7 0.00 0.86 0.15 48 1005.8
20260508204230 16 165 8.0 16.1 0.00 0.86 0.15 46 1005.9
20260508204005 16 168 9.7 16.1 0.00 0.86 0.15 44 1006.0
20260508203229 16 188 9.7 16.1 0.00 0.86 0.15 45 1006.1
20260508202729 16 161 9.7 16.1 0.00 0.86 0.15 43 1006.1
20260508202227 16 130 8.0 16.1 0.00 0.86 0.15 43 1006.2
20260508201730 16 77 0.0 16.1 0.00 0.86 0.15 42 1006.3
20260508201226 16 67 6.4 17.7 0.00 0.86 0.15 42 1006.4
20260508200726 16 105 11.3 17.7 0.00 0.86 0.15 39 1006.5
20260508200225 16 112 4.8 16.1 0.00 0.86 0.15 38 1006.7
20260508195725 16 16 3.2 17.7 0.00 0.86 0.15 40 1006.8
20260508195221 15 127 6.4 17.7 0.00 0.86 0.15 41 1006.8
20260508194723 15 118 9.7 16.1 0.00 0.86 0.15 40 1006.8
20260508194220 15 115 4.8 14.5 0.00 0.86 0.15 41 1006.8
20260508193720 15 140 1.6 16.1 0.00 0.86 0.15 42 1006.9
20260508193208 15 163 8.0 16.1 0.00 0.86 0.15 39 1006.9
20260508192708 16 154 0.0 20.9 0.00 0.86 0.15 40 1007.0
20260508192206 16 350 4.8 20.9 0.00 0.86 0.15 37 1007.0
20260508191707 16 18 9.7 20.9 0.03 0.86 0.15 37 1007.0
20260508191205 16 120 12.9 20.9 0.05 0.86 0.15 36 1007.1
20260508190704 16 80 6.4 17.7 0.05 0.86 0.15 38 1007.2
20260508190207 16 111 8.0 17.7 0.05 0.86 0.15 41 1007.2
20260508185702 16 25 6.4 17.7 0.05 0.86 0.15 39 1007.3
20260508185200 16 129 8.0 17.7 0.05 0.86 0.15 34 1007.4
20260508184700 16 175 1.6 17.7 0.05 0.86 0.15 35 1007.4
20260508184153 16 91 12.9 17.7 0.05 0.86 0.15 35 1007.4
20260508183654 16 43 0.0 17.7 0.05 0.86 0.15 34 1007.6
20260508183134 16 185 4.8 14.5 0.05 0.86 0.15 35 1007.6
20260508182634 16 185 4.8 16.1 0.05 0.86 0.15 36 1007.7
20260508182357 16 161 1.6 16.1 0.05 0.86 0.15 34 1007.7
20260508181850 16 68 4.8 17.7 0.03 0.84 0.15 32 1007.7
20260508181131 16 130 8.0 17.7 0.00 0.81 0.10 33 1007.8
20260508180632 16 108 6.4 16.1 0.00 0.81 0.10 34 1007.8
20260508180130 16 202 9.7 17.7 0.00 0.81 0.10 35 1007.9
20260508175629 16 125 11.3 19.3 0.00 0.81 0.10 37 1008.0
20260508175128 15 149 9.7 19.3 0.00 0.81 0.10 37 1008.1
20260508174626 15 194 8.0 17.7 0.00 0.81 0.10 39 1008.2
20260508174128 16 111 9.7 17.7 0.00 0.81 0.10 36 1008.3
20260508173628 16 68 4.8 17.7 0.00 0.81 0.10 35 1008.3
20260508173126 16 74 8.0 17.7 0.00 0.81 0.10 33 1008.4
20260508172843 16 130 6.4 16.1 0.00 0.81 0.10 38 1008.5
20260508172120 15 56 9.7 16.1 0.00 0.81 0.10 36 1008.6
20260508171622 15 104 6.4 14.5 0.00 0.81 0.10 38 1008.6
20260508171353 15 136 9.7 16.1 0.00 0.81 0.10 40 1008.8
20260508170849 15 157 9.7 16.1 0.00 0.81 0.10 41 1008.8
20260508170119 16 70 6.4 16.1 0.00 0.81 0.10 43 1008.8
20260508165617 16 104 4.8 16.1 0.03 0.81 0.10 41 1008.8
20260508165114 16 146 11.3 16.1 0.03 0.81 0.10 39 1008.9
20260508164612 16 174 0.0 14.5 0.03 0.81 0.10 42 1009.2
20260508164113 16 129 3.2 11.3 0.03 0.81 0.10 43 1009.3
20260508163608 15 119 1.6 11.3 0.03 0.81 0.10 44 1009.3
20260508163100 15 66 3.2 12.9 0.03 0.81 0.10 46 1009.5
20260508162559 15 88 4.8 14.5 0.03 0.81 0.10 47 1009.4
20260508162058 15 115 4.8 14.5 0.03 0.81 0.10 47 1009.4
20260508162035 15 45 8.0 12.9 0.03 0.81 0.10 49 1009.4
20260508161055 15 85 3.2 14.5 0.03 0.81 0.10 48 1009.4
20260508160554 15 60 4.8 14.5 0.03 0.81 0.10 47 1009.4
20260508160318 15 50 6.4 14.5 0.03 0.81 0.10 48 1009.5
20260508155554 15 43 3.2 11.3 0.00 0.79 0.08 51 1009.5
20260508155050 15 36 6.4 14.5 0.00 0.79 0.08 48 1009.6
20260508154550 15 84 4.8 14.5 0.00 0.79 0.08 52 1009.7
20260508154304 15 87 1.6 12.9 0.00 0.79 0.08 57 1009.7
20260508153545 15 142 1.6 12.9 0.00 0.79 0.08 56 1009.7
20260508153043 15 127 1.6 8.0 0.00 0.79 0.08 53 1009.7
20260508152543 15 104 1.6 9.7 0.00 0.79 0.08 49 1009.7
20260508152043 15 168 4.8 9.7 0.00 0.79 0.08 53 1009.8
20260508151542 15 82 3.2 8.0 0.00 0.79 0.08 55 1009.8
20260508151038 14 135 4.8 8.0 0.00 0.79 0.08 55 1009.9